Time,TemperatureF,DewpointF,PressureIn,WindDirection,WindDirectionDegrees,WindSpeedMPH,WindSpeedGustMPH,Humidity,HourlyPrecipIn,Conditions,Clouds,dailyrainin,SoftwareType,DateUTC
2013-04-14 00:03:00,38.8,37.8,29.89,West,276,1.0,2.0,96,0.00,,,0.00,LWC V2.10 B1813,2013-04-14 04:03:00,
2013-04-14 00:08:00,38.9,37.9,29.90,West,277,1.0,1.0,96,0.00,,,0.00,LWC V2.10 B1813,2013-04-14 04:08:00,
2013-04-14 00:13:00,38.8,37.8,29.90,WNW,289,1.0,1.0,96,0.00,,,0.00,LWC V2.10 B1813,2013-04-14 04:13:00,
2013-04-14 00:18:00,38.6,37.6,29.90,WNW,288,1.0,1.0,96,0.00,,,0.00,LWC V2.10 B1813,2013-04-14 04:18:00,
2013-04-14 00:23:00,38.4,37.4,29.90,WNW,297,2.0,2.0,96,0.00,,,0.00,LWC V2.10 B1813,2013-04-14 04:23:00,
2013-04-14 00:28:00,38.1,37.1,29.91,NW,305,1.0,1.0,96,0.00,,,0.00,LWC V2.10 B1813,2013-04-14 04:28:00,
2013-04-14 00:33:00,37.9,36.9,29.90,WNW,286,1.0,3.0,96,0.00,,,0.00,LWC V2.10 B1813,2013-04-14 04:33:00,
2013-04-14 00:38:00,37.7,36.7,29.90,WNW,286,0.0,2.0,96,0.00,,,0.00,LWC V2.10 B1813,2013-04-14 04:38:00,
2013-04-14 00:43:00,37.5,36.5,29.90,West,279,1.0,2.0,96,0.00,,,0.00,LWC V2.10 B1813,2013-04-14 04:43:00,
2013-04-14 00:48:00,37.5,36.7,29.91,WSW,246,0.0,0.0,97,0.00,,,0.00,LWC V2.10 B1813,2013-04-14 04:48:00,
2013-04-14 00:53:00,37.2,36.2,29.91,East,100,0.0,2.0,96,0.00,,,0.00,LWC V2.10 B1813,2013-04-14 04:53:00,
2013-04-14 00:58:00,36.9,35.9,29.91,SSE,147,0.0,0.0,96,0.00,,,0.00,LWC V2.10 B1813,2013-04-14 04:58:00,
2013-04-14 01:03:00,36.5,35.5,29.91,West,273,1.0,1.0,96,0.00,,,0.00,LWC V2.10 B1813,2013-04-14 05:03:00,
2013-04-14 01:08:00,36.2,35.2,29.91,West,272,1.0,1.0,96,0.00,,,0.00,LWC V2.10 B1813,2013-04-14 05:08:00,
2013-04-14 01:13:00,35.9,34.9,29.90,WNW,297,1.0,1.0,96,0.00,,,0.00,LWC V2.10 B1813,2013-04-14 05:13:00,
2013-04-14 01:18:00,35.7,34.9,29.90,WNW,290,0.0,1.0,97,0.00,,,0.00,LWC V2.10 B1813,2013-04-14 05:18:00,
2013-04-14 01:23:00,35.5,34.7,29.90,WNW,286,1.0,1.0,97,0.00,,,0.00,LWC V2.10 B1813,2013-04-14 05:23:00,
2013-04-14 01:28:00,35.2,34.4,29.90,WNW,284,1.0,1.0,97,0.00,,,0.00,LWC V2.10 B1813,2013-04-14 05:28:00,
2013-04-14 01:33:00,35.2,34.4,29.91,West,269,0.0,1.0,97,0.00,,,0.00,LWC V2.10 B1813,2013-04-14 05:33:00,
2013-04-14 01:38:00,35.0,34.2,29.91,WNW,287,0.0,1.0,97,0.00,,,0.00,LWC V2.10 B1813,2013-04-14 05:38:00,
2013-04-14 01:43:00,34.7,33.9,29.91,WNW,286,0.0,1.0,97,0.00,,,0.00,LWC V2.10 B1813,2013-04-14 05:43:00,
2013-04-14 01:48:00,34.3,33.5,29.90,West,277,1.0,2.0,97,0.00,,,0.00,LWC V2.10 B1813,2013-04-14 05:48:00,
2013-04-14 01:53:00,34.1,33.3,29.91,West,277,0.0,1.0,97,0.00,,,0.00,LWC V2.10 B1813,2013-04-14 05:53:00,
2013-04-14 01:58:00,33.9,33.1,29.91,West,277,0.0,0.0,97,0.00,,,0.00,LWC V2.10 B1813,2013-04-14 05:58:00,
2013-04-14 02:03:00,33.6,32.8,29.90,West,277,0.0,0.0,97,0.00,,,0.00,LWC V2.10 B1813,2013-04-14 06:03:00,
2013-04-14 02:08:00,33.4,32.6,29.90,West,276,0.0,1.0,97,0.00,,,0.00,LWC V2.10 B1813,2013-04-14 06:08:00,
2013-04-14 02:13:00,33.4,32.6,29.90,West,276,0.0,0.0,97,0.00,,,0.00,LWC V2.10 B1813,2013-04-14 06:13:00,
2013-04-14 02:18:00,33.5,33.0,29.90,West,276,0.0,0.0,98,0.00,,,0.00,LWC V2.10 B1813,2013-04-14 06:18:00,
2013-04-14 02:23:00,33.9,33.4,29.90,WNW,286,1.0,1.0,98,0.00,,,0.00,LWC V2.10 B1813,2013-04-14 06:23:00,
2013-04-14 02:28:00,34.1,33.6,29.90,WNW,296,1.0,2.0,98,0.00,,,0.00,LWC V2.10 B1813,2013-04-14 06:28:00,
2013-04-14 02:33:00,34.0,33.5,29.90,West,277,2.0,2.0,98,0.00,,,0.00,LWC V2.10 B1813,2013-04-14 06:33:00,
2013-04-14 02:38:00,34.0,33.5,29.90,West,276,0.0,0.0,98,0.00,,,0.00,LWC V2.10 B1813,2013-04-14 06:38:00,
2013-04-14 02:53:00,33.8,33.3,29.90,West,276,0.0,0.0,98,0.00,,,0.00,LWC V2.10 B1813,2013-04-14 06:53:00,
2013-04-14 02:58:00,33.7,33.2,29.90,West,276,0.0,0.0,98,0.00,,,0.00,LWC V2.10 B1813,2013-04-14 06:58:00,
2013-04-14 03:03:00,33.7,33.2,29.90,WNW,291,0.0,0.0,98,0.00,,,0.00,LWC V2.10 B1813,2013-04-14 07:03:00,
2013-04-14 03:08:00,33.7,33.2,29.90,WNW,291,0.0,0.0,98,0.00,,,0.00,LWC V2.10 B1813,2013-04-14 07:08:00,
2013-04-14 03:13:00,33.6,33.1,29.91,WNW,290,0.0,0.0,98,0.00,,,0.00,LWC V2.10 B1813,2013-04-14 07:13:00,
2013-04-14 03:18:00,33.5,33.0,29.91,WNW,290,0.0,0.0,98,0.00,,,0.00,LWC V2.10 B1813,2013-04-14 07:18:00,
2013-04-14 03:23:00,33.5,33.0,29.91,WNW,290,0.0,0.0,98,0.00,,,0.00,LWC V2.10 B1813,2013-04-14 07:23:00,
2013-04-14 03:28:00,33.6,33.1,29.91,WNW,291,0.0,0.0,98,0.00,,,0.00,LWC V2.10 B1813,2013-04-14 07:28:00,
2013-04-14 03:33:00,33.7,33.2,29.91,WNW,282,0.0,0.0,98,0.00,,,0.00,LWC V2.10 B1813,2013-04-14 07:33:00,
2013-04-14 03:38:00,33.7,33.2,29.91,WNW,282,2.0,2.0,98,0.00,,,0.00,LWC V2.10 B1813,2013-04-14 07:38:00,
2013-04-14 03:43:00,33.9,33.4,29.92,WNW,290,1.0,1.0,98,0.00,,,0.00,LWC V2.10 B1813,2013-04-14 07:43:00,
2013-04-14 03:48:00,34.0,33.5,29.92,WNW,282,0.0,0.0,98,0.00,,,0.00,LWC V2.10 B1813,2013-04-14 07:48:00,
2013-04-14 03:58:00,34.2,33.7,29.92,SE,144,1.0,1.0,98,0.00,,,0.00,LWC V2.10 B1813,2013-04-14 07:58:00,
2013-04-14 04:03:00,34.4,33.9,29.92,ESE,122,0.0,0.0,98,0.00,,,0.00,LWC V2.10 B1813,2013-04-14 08:03:00,
2013-04-14 04:08:00,34.5,34.0,29.92,WSW,245,0.0,1.0,98,0.00,,,0.00,LWC V2.10 B1813,2013-04-14 08:08:00,
2013-04-14 04:18:00,34.8,34.3,29.92,ESE,110,0.0,1.0,98,0.00,,,0.00,LWC V2.10 B1813,2013-04-14 08:18:00,
2013-04-14 04:28:00,34.7,34.2,29.92,North,350,0.0,0.0,98,0.00,,,0.00,LWC V2.10 B1813,2013-04-14 08:28:00,
2013-04-14 04:33:00,34.6,34.1,29.92,North,350,0.0,0.0,98,0.00,,,0.00,LWC V2.10 B1813,2013-04-14 08:33:00,
2013-04-14 04:38:00,34.6,34.1,29.92,North,350,0.0,0.0,98,0.00,,,0.00,LWC V2.10 B1813,2013-04-14 08:38:00,
2013-04-14 04:43:00,34.6,34.1,29.92,North,350,0.0,0.0,98,0.00,,,0.00,LWC V2.10 B1813,2013-04-14 08:43:00,
2013-04-14 04:48:00,34.7,34.2,29.92,North,350,0.0,0.0,98,0.00,,,0.00,LWC V2.10 B1813,2013-04-14 08:48:00,
2013-04-14 04:53:00,34.7,34.2,29.92,NW,308,1.0,1.0,98,0.00,,,0.00,LWC V2.10 B1813,2013-04-14 08:53:00,
2013-04-14 04:58:00,34.5,34.0,29.92,NW,308,0.0,0.0,98,0.00,,,0.00,LWC V2.10 B1813,2013-04-14 08:58:00,
2013-04-14 05:03:00,34.7,34.2,29.92,NW,308,0.0,0.0,98,0.00,,,0.00,LWC V2.10 B1813,2013-04-14 09:03:00,
2013-04-14 05:08:00,34.7,34.2,29.92,NW,307,0.0,0.0,98,0.00,,,0.00,LWC V2.10 B1813,2013-04-14 09:08:00,
2013-04-14 05:13:00,34.8,34.3,29.92,NW,307,0.0,0.0,98,0.00,,,0.00,LWC V2.10 B1813,2013-04-14 09:13:00,
2013-04-14 05:18:00,34.8,34.3,29.92,NW,306,0.0,0.0,98,0.00,,,0.00,LWC V2.10 B1813,2013-04-14 09:18:00,
2013-04-14 05:23:00,34.8,34.3,29.92,NW,307,0.0,0.0,98,0.00,,,0.00,LWC V2.10 B1813,2013-04-14 09:23:00,
2013-04-14 05:28:00,34.8,34.3,29.92,NW,306,0.0,0.0,98,0.00,,,0.00,LWC V2.10 B1813,2013-04-14 09:28:00,
2013-04-14 05:33:00,34.8,34.3,29.92,NW,307,0.0,0.0,98,0.00,,,0.00,LWC V2.10 B1813,2013-04-14 09:33:00,
2013-04-14 05:38:00,34.8,34.3,29.92,NW,307,0.0,0.0,98,0.00,,,0.00,LWC V2.10 B1813,2013-04-14 09:38:00,
2013-04-14 05:48:00,34.7,34.2,29.92,NW,306,0.0,0.0,98,0.00,,,0.00,LWC V2.10 B1813,2013-04-14 09:48:00,
2013-04-14 05:53:00,34.8,34.3,29.92,NW,306,0.0,0.0,98,0.00,,,0.00,LWC V2.10 B1813,2013-04-14 09:53:00,
2013-04-14 05:58:00,34.6,34.1,29.92,NW,306,0.0,0.0,98,0.00,,,0.00,LWC V2.10 B1813,2013-04-14 09:58:00,
2013-04-14 06:03:00,34.5,34.0,29.92,NW,306,0.0,0.0,98,0.00,,,0.00,LWC V2.10 B1813,2013-04-14 10:03:00,
2013-04-14 06:08:00,34.6,34.1,29.92,NW,306,0.0,0.0,98,0.00,,,0.00,LWC V2.10 B1813,2013-04-14 10:08:00,
2013-04-14 06:13:00,34.7,34.2,29.92,NW,307,0.0,0.0,98,0.00,,,0.00,LWC V2.10 B1813,2013-04-14 10:13:00,
2013-04-14 06:18:00,34.7,34.2,29.92,NW,306,0.0,0.0,98,0.00,,,0.00,LWC V2.10 B1813,2013-04-14 10:18:00,
2013-04-14 06:23:00,34.8,34.3,29.92,NW,306,0.0,0.0,98,0.00,,,0.00,LWC V2.10 B1813,2013-04-14 10:23:00,
2013-04-14 06:28:00,34.7,34.2,29.92,NW,307,0.0,0.0,98,0.00,,,0.00,LWC V2.10 B1813,2013-04-14 10:28:00,
2013-04-14 06:33:00,34.7,34.2,29.93,NW,306,0.0,0.0,98,0.00,,,0.00,LWC V2.10 B1813,2013-04-14 10:33:00,
2013-04-14 06:38:00,34.7,34.2,29.93,NW,306,0.0,0.0,98,0.00,,,0.00,LWC V2.10 B1813,2013-04-14 10:38:00,
2013-04-14 06:43:00,34.7,34.2,29.93,NW,306,0.0,0.0,98,0.00,,,0.00,LWC V2.10 B1813,2013-04-14 10:43:00,
2013-04-14 06:48:00,34.6,34.1,29.93,NW,306,0.0,0.0,98,0.00,,,0.00,LWC V2.10 B1813,2013-04-14 10:48:00,
2013-04-14 06:53:00,34.6,34.1,29.93,NW,306,0.0,0.0,98,0.00,,,0.00,LWC V2.10 B1813,2013-04-14 10:53:00,
2013-04-14 06:58:00,34.7,34.2,29.93,NW,306,0.0,0.0,98,0.00,,,0.00,LWC V2.10 B1813,2013-04-14 10:58:00,
2013-04-14 07:03:00,34.8,34.3,29.93,NW,306,0.0,0.0,98,0.00,,,0.00,LWC V2.10 B1813,2013-04-14 11:03:00,
2013-04-14 07:08:00,35.0,34.5,29.93,NW,307,0.0,0.0,98,0.00,,,0.00,LWC V2.10 B1813,2013-04-14 11:08:00,
2013-04-14 07:13:00,35.3,34.8,29.93,NW,307,0.0,0.0,98,0.00,,,0.00,LWC V2.10 B1813,2013-04-14 11:13:00,
2013-04-14 07:18:00,35.6,35.3,29.93,NW,306,0.0,0.0,99,0.00,,,0.00,LWC V2.10 B1813,2013-04-14 11:18:00,
2013-04-14 07:23:00,35.9,35.6,29.93,NW,307,0.0,0.0,99,0.00,,,0.00,LWC V2.10 B1813,2013-04-14 11:23:00,
2013-04-14 07:28:00,36.2,35.9,29.93,NW,307,0.0,0.0,99,0.00,,,0.00,LWC V2.10 B1813,2013-04-14 11:28:00,
2013-04-14 07:33:00,36.6,36.3,29.94,NW,306,0.0,0.0,99,0.00,,,0.00,LWC V2.10 B1813,2013-04-14 11:33:00,
2013-04-14 07:38:00,36.9,36.6,29.95,NW,306,0.0,0.0,99,0.00,,,0.00,LWC V2.10 B1813,2013-04-14 11:38:00,
2013-04-14 07:43:00,37.1,36.8,29.95,NW,307,0.0,0.0,99,0.00,,,0.00,LWC V2.10 B1813,2013-04-14 11:43:00,
2013-04-14 07:48:00,37.2,36.9,29.95,ESE,109,0.0,0.0,99,0.00,,,0.00,LWC V2.10 B1813,2013-04-14 11:48:00,
2013-04-14 07:53:00,37.5,37.2,29.95,West,277,0.0,2.0,99,0.00,,,0.00,LWC V2.10 B1813,2013-04-14 11:53:00,
2013-04-14 07:58:00,38.1,37.6,29.95,WSW,237,0.0,5.0,98,0.00,,,0.00,LWC V2.10 B1813,2013-04-14 11:58:00,
2013-04-14 08:03:00,38.9,37.3,29.95,WSW,252,2.0,3.0,94,0.00,,,0.00,LWC V2.10 B1813,2013-04-14 12:03:00,
2013-04-14 08:08:00,39.5,37.1,29.95,West,279,0.0,1.0,91,0.00,,,0.00,LWC V2.10 B1813,2013-04-14 12:08:00,
2013-04-14 08:13:00,39.9,36.6,29.95,West,280,1.0,1.0,88,0.00,,,0.00,LWC V2.10 B1813,2013-04-14 12:13:00,
2013-04-14 08:18:00,40.3,35.2,29.95,NW,304,1.0,7.0,82,0.00,,,0.00,LWC V2.10 B1813,2013-04-14 12:18:00,
2013-04-14 08:23:00,40.7,35.9,29.96,NW,310,0.0,2.0,83,0.00,,,0.00,LWC V2.10 B1813,2013-04-14 12:23:00,
2013-04-14 08:28:00,40.9,35.5,29.96,North,351,0.0,5.0,81,0.00,,,0.00,LWC V2.10 B1813,2013-04-14 12:28:00,
2013-04-14 08:33:00,41.1,36.0,29.96,NW,324,1.0,5.0,82,0.00,,,0.00,LWC V2.10 B1813,2013-04-14 12:33:00,
2013-04-14 08:38:00,41.1,36.6,29.96,WNW,283,1.0,2.0,84,0.00,,,0.00,LWC V2.10 B1813,2013-04-14 12:38:00,
2013-04-14 08:43:00,41.0,35.9,29.96,NNW,341,3.0,4.0,82,0.00,,,0.00,LWC V2.10 B1813,2013-04-14 12:43:00,
2013-04-14 08:48:00,41.1,35.7,29.96,NW,324,4.0,7.0,81,0.00,,,0.00,LWC V2.10 B1813,2013-04-14 12:48:00,
2013-04-14 08:53:00,41.1,35.4,29.96,West,265,0.0,5.0,80,0.00,,,0.00,LWC V2.10 B1813,2013-04-14 12:53:00,
2013-04-14 08:58:00,41.4,35.7,29.96,SW,224,1.0,1.0,80,0.00,,,0.00,LWC V2.10 B1813,2013-04-14 12:58:00,
2013-04-14 09:03:00,41.6,35.6,29.95,NW,314,3.0,3.0,79,0.00,,,0.00,LWC V2.10 B1813,2013-04-14 13:03:00,
2013-04-14 09:08:00,41.8,35.8,29.95,West,268,2.0,3.0,79,0.00,,,0.00,LWC V2.10 B1813,2013-04-14 13:08:00,
2013-04-14 09:13:00,41.9,35.2,29.95,North,2,3.0,3.0,77,0.00,,,0.00,LWC V2.10 B1813,2013-04-14 13:13:00,
2013-04-14 09:18:00,42.0,34.7,29.96,North,350,3.0,3.0,75,0.00,,,0.00,LWC V2.10 B1813,2013-04-14 13:18:00,
2013-04-14 09:23:00,42.2,34.9,29.96,WNW,294,1.0,3.0,75,0.00,,,0.00,LWC V2.10 B1813,2013-04-14 13:23:00,
2013-04-14 09:28:00,42.4,34.4,29.96,NW,317,5.0,7.0,73,0.00,,,0.00,LWC V2.10 B1813,2013-04-14 13:28:00,
2013-04-14 09:33:00,42.6,34.6,29.95,North,0,1.0,1.0,73,0.00,,,0.00,LWC V2.10 B1813,2013-04-14 13:33:00,
2013-04-14 09:38:00,42.8,34.4,29.95,West,259,5.0,5.0,72,0.00,,,0.00,LWC V2.10 B1813,2013-04-14 13:38:00,
2013-04-14 09:43:00,43.2,34.8,29.95,WSW,244,2.0,2.0,72,0.00,,,0.00,LWC V2.10 B1813,2013-04-14 13:43:00,
2013-04-14 09:48:00,43.5,34.0,29.95,NNW,338,4.0,9.0,69,0.00,,,0.00,LWC V2.10 B1813,2013-04-14 13:48:00,
2013-04-14 09:53:00,43.7,34.6,29.96,North,354,0.0,4.0,70,0.00,,,0.00,LWC V2.10 B1813,2013-04-14 13:53:00,
2013-04-14 09:58:00,44.0,34.1,29.96,NW,304,4.0,8.0,68,0.00,,,0.00,LWC V2.10 B1813,2013-04-14 13:58:00,
2013-04-14 10:03:00,43.7,33.8,29.97,NW,323,4.0,7.0,68,0.00,,,0.00,LWC V2.10 B1813,2013-04-14 14:03:00,
2013-04-14 10:08:00,43.5,33.7,29.97,NW,307,6.0,9.0,68,0.00,,,0.00,LWC V2.10 B1813,2013-04-14 14:08:00,
2013-04-14 10:13:00,43.6,33.4,29.97,NW,308,5.0,10.0,67,0.00,,,0.00,LWC V2.10 B1813,2013-04-14 14:13:00,
2013-04-14 10:18:00,43.8,33.6,29.97,West,262,4.0,6.0,67,0.00,,,0.00,LWC V2.10 B1813,2013-04-14 14:18:00,
2013-04-14 10:23:00,44.0,33.4,29.97,North,10,3.0,10.0,66,0.00,,,0.00,LWC V2.10 B1813,2013-04-14 14:23:00,
2013-04-14 10:28:00,44.4,33.0,29.97,West,269,3.0,6.0,64,0.00,,,0.00,LWC V2.10 B1813,2013-04-14 14:28:00,
2013-04-14 10:33:00,44.5,33.1,29.97,WNW,283,3.0,4.0,64,0.00,,,0.00,LWC V2.10 B1813,2013-04-14 14:33:00,
2013-04-14 10:38:00,44.4,32.2,29.98,WNW,298,2.0,9.0,62,0.00,,,0.00,LWC V2.10 B1813,2013-04-14 14:38:00,
2013-04-14 10:43:00,44.2,32.4,29.98,NNE,23,4.0,9.0,63,0.00,,,0.00,LWC V2.10 B1813,2013-04-14 14:43:00,
2013-04-14 10:48:00,44.1,32.3,29.98,NW,308,6.0,9.0,63,0.00,,,0.00,LWC V2.10 B1813,2013-04-14 14:48:00,
2013-04-14 10:53:00,44.3,32.1,29.98,NW,313,4.0,10.0,62,0.00,,,0.00,LWC V2.10 B1813,2013-04-14 14:53:00,
2013-04-14 10:58:00,44.5,33.1,29.98,NW,311,1.0,3.0,64,0.00,,,0.00,LWC V2.10 B1813,2013-04-14 14:58:00,
2013-04-14 11:08:00,44.7,32.5,29.98,NE,35,3.0,5.0,62,0.00,,,0.00,LWC V2.10 B1813,2013-04-14 15:08:00,
2013-04-14 11:13:00,45.0,32.4,29.98,NW,320,4.0,8.0,61,0.00,,,0.00,LWC V2.10 B1813,2013-04-14 15:13:00,
2013-04-14 11:18:00,44.9,32.3,29.98,West,272,4.0,5.0,61,0.00,,,0.00,LWC V2.10 B1813,2013-04-14 15:18:00,
2013-04-14 11:23:00,45.3,32.2,29.97,WNW,289,3.0,7.0,60,0.00,,,0.00,LWC V2.10 B1813,2013-04-14 15:23:00,
2013-04-14 11:28:00,45.6,32.1,29.97,North,350,3.0,4.0,59,0.00,,,0.00,LWC V2.10 B1813,2013-04-14 15:28:00,
2013-04-14 11:33:00,45.8,32.3,29.97,South,184,1.0,5.0,59,0.00,,,0.00,LWC V2.10 B1813,2013-04-14 15:33:00,
2013-04-14 11:38:00,45.9,32.0,29.97,NE,35,6.0,10.0,58,0.00,,,0.00,LWC V2.10 B1813,2013-04-14 15:38:00,
2013-04-14 11:43:00,46.1,31.7,29.97,North,8,3.0,6.0,57,0.00,,,0.00,LWC V2.10 B1813,2013-04-14 15:43:00,
2013-04-14 11:48:00,46.6,32.6,29.97,NE,54,1.0,8.0,58,0.00,,,0.00,LWC V2.10 B1813,2013-04-14 15:48:00,
2013-04-14 11:53:00,46.7,30.9,29.97,SW,231,5.0,12.0,54,0.00,,,0.00,LWC V2.10 B1813,2013-04-14 15:53:00,
2013-04-14 11:58:00,46.8,31.5,29.97,West,263,4.0,4.0,55,0.00,,,0.00,LWC V2.10 B1813,2013-04-14 15:58:00,
2013-04-14 12:03:00,47.0,31.7,29.97,SW,231,7.0,10.0,55,0.00,,,0.00,LWC V2.10 B1813,2013-04-14 16:03:00,
2013-04-14 12:13:00,48.0,33.9,29.97,WNW,282,5.0,5.0,58,0.00,,,0.00,LWC V2.10 B1813,2013-04-14 16:13:00,
2013-04-14 12:18:00,48.3,32.0,29.96,East,85,5.0,8.0,53,0.00,,,0.00,LWC V2.10 B1813,2013-04-14 16:18:00,
2013-04-14 12:23:00,49.2,33.7,29.97,WNW,288,2.0,5.0,55,0.00,,,0.00,LWC V2.10 B1813,2013-04-14 16:23:00,
2013-04-14 12:28:00,48.3,32.4,29.97,West,275,6.0,9.0,54,0.00,,,0.00,LWC V2.10 B1813,2013-04-14 16:28:00,
2013-04-14 12:33:00,47.6,32.2,29.97,NE,50,1.0,7.0,55,0.00,,,0.00,LWC V2.10 B1813,2013-04-14 16:33:00,
2013-04-14 12:38:00,47.7,32.8,29.97,WNW,284,11.0,14.0,56,0.00,,,0.00,LWC V2.10 B1813,2013-04-14 16:38:00,
2013-04-14 12:43:00,47.3,31.5,29.97,NW,322,2.0,7.0,54,0.00,,,0.00,LWC V2.10 B1813,2013-04-14 16:43:00,
2013-04-14 12:48:00,47.1,31.3,29.97,NE,47,3.0,8.0,54,0.00,,,0.00,LWC V2.10 B1813,2013-04-14 16:48:00,
2013-04-14 12:53:00,47.1,31.8,29.97,WNW,283,4.0,4.0,55,0.00,,,0.00,LWC V2.10 B1813,2013-04-14 16:53:00,
2013-04-14 12:58:00,47.2,30.5,29.97,West,272,6.0,13.0,52,0.00,,,0.00,LWC V2.10 B1813,2013-04-14 16:58:00,
2013-04-14 13:03:00,47.0,30.3,29.97,NNE,13,2.0,7.0,52,0.00,,,0.00,LWC V2.10 B1813,2013-04-14 17:03:00,
2013-04-14 13:08:00,46.9,31.1,29.97,NNW,327,3.0,4.0,54,0.00,,,0.00,LWC V2.10 B1813,2013-04-14 17:08:00,
2013-04-14 13:13:00,46.8,29.2,29.97,North,355,3.0,13.0,50,0.00,,,0.00,LWC V2.10 B1813,2013-04-14 17:13:00,
2013-04-14 13:18:00,46.6,29.5,29.98,WSW,239,12.0,16.0,51,0.00,,,0.00,LWC V2.10 B1813,2013-04-14 17:18:00,
2013-04-14 13:23:00,46.4,29.7,29.98,WSW,254,8.0,14.0,52,0.00,,,0.00,LWC V2.10 B1813,2013-04-14 17:23:00,
2013-04-14 13:28:00,46.3,29.2,29.98,NW,313,8.0,15.0,51,0.00,,,0.00,LWC V2.10 B1813,2013-04-14 17:28:00,
2013-04-14 13:33:00,46.3,29.6,29.98,West,279,8.0,15.0,52,0.00,,,0.00,LWC V2.10 B1813,2013-04-14 17:33:00,
2013-04-14 13:38:00,46.6,30.4,29.98,West,268,12.0,12.0,53,0.00,,,0.00,LWC V2.10 B1813,2013-04-14 17:38:00,
2013-04-14 13:43:00,47.5,30.3,29.98,NNW,336,4.0,9.0,51,0.00,,,0.00,LWC V2.10 B1813,2013-04-14 17:43:00,
2013-04-14 13:48:00,48.0,30.7,29.99,North,349,5.0,10.0,51,0.00,,,0.00,LWC V2.10 B1813,2013-04-14 17:48:00,
2013-04-14 13:53:00,47.4,29.7,29.99,West,279,8.0,15.0,50,0.00,,,0.00,LWC V2.10 B1813,2013-04-14 17:53:00,
2013-04-14 13:58:00,46.5,29.4,29.99,West,260,7.0,17.0,51,0.00,,,0.00,LWC V2.10 B1813,2013-04-14 17:58:00,
2013-04-14 14:03:00,46.1,29.5,30.00,NW,311,6.0,16.0,52,0.00,,,0.00,LWC V2.10 B1813,2013-04-14 18:03:00,
2013-04-14 14:08:00,46.0,29.8,30.00,West,265,12.0,14.0,53,0.00,,,0.00,LWC V2.10 B1813,2013-04-14 18:08:00,
2013-04-14 14:13:00,46.0,29.8,30.00,WNW,284,7.0,14.0,53,0.00,,,0.00,LWC V2.10 B1813,2013-04-14 18:13:00,
2013-04-14 14:18:00,46.2,29.6,30.00,NW,313,10.0,11.0,52,0.00,,,0.00,LWC V2.10 B1813,2013-04-14 18:18:00,
2013-04-14 14:23:00,46.7,30.5,30.00,WSW,258,2.0,6.0,53,0.00,,,0.00,LWC V2.10 B1813,2013-04-14 18:23:00,
2013-04-14 14:28:00,46.7,29.5,30.01,North,359,6.0,14.0,51,0.00,,,0.00,LWC V2.10 B1813,2013-04-14 18:28:00,
2013-04-14 14:33:00,46.1,30.4,30.01,NW,317,7.0,12.0,54,0.00,,,0.00,LWC V2.10 B1813,2013-04-14 18:33:00,
2013-04-14 14:38:00,45.5,30.7,30.01,NNW,347,2.0,12.0,56,0.00,,,0.00,LWC V2.10 B1813,2013-04-14 18:38:00,
2013-04-14 14:43:00,44.9,30.6,30.01,WNW,294,13.0,13.0,57,0.00,,,0.00,LWC V2.10 B1813,2013-04-14 18:43:00,
2013-04-14 14:48:00,44.5,30.7,30.01,NW,307,8.0,8.0,58,0.00,,,0.00,LWC V2.10 B1813,2013-04-14 18:48:00,
2013-04-14 14:53:00,44.4,29.7,30.02,NNE,13,3.0,9.0,56,0.00,,,0.00,LWC V2.10 B1813,2013-04-14 18:53:00,
2013-04-14 15:03:00,44.6,29.0,30.02,North,2,5.0,13.0,54,0.00,,,0.00,LWC V2.10 B1813,2013-04-14 19:03:00,
2013-04-14 15:08:00,44.7,28.6,30.01,NW,305,9.0,10.0,53,0.00,,,0.00,LWC V2.10 B1813,2013-04-14 19:08:00,
2013-04-14 15:13:00,44.8,28.7,30.01,WSW,255,1.0,7.0,53,0.00,,,0.00,LWC V2.10 B1813,2013-04-14 19:13:00,
2013-04-14 15:18:00,45.1,28.1,30.01,WNW,286,4.0,7.0,51,0.00,,,0.00,LWC V2.10 B1813,2013-04-14 19:18:00,
2013-04-14 15:23:00,45.3,27.8,30.01,NW,321,11.0,11.0,50,0.00,,,0.00,LWC V2.10 B1813,2013-04-14 19:23:00,
2013-04-14 15:28:00,45.3,28.2,30.01,North,355,2.0,5.0,51,0.00,,,0.00,LWC V2.10 B1813,2013-04-14 19:28:00,
2013-04-14 15:33:00,45.4,28.8,30.02,WNW,293,2.0,6.0,52,0.00,,,0.00,LWC V2.10 B1813,2013-04-14 19:33:00,
2013-04-14 15:38:00,45.5,28.4,30.02,NW,325,6.0,7.0,51,0.00,,,0.00,LWC V2.10 B1813,2013-04-14 19:38:00,
2013-04-14 15:43:00,45.6,29.5,30.02,NNW,328,6.0,7.0,53,0.00,,,0.00,LWC V2.10 B1813,2013-04-14 19:43:00,
2013-04-14 15:48:00,45.6,28.5,30.02,NW,310,5.0,13.0,51,0.00,,,0.00,LWC V2.10 B1813,2013-04-14 19:48:00,
2013-04-14 15:53:00,45.5,28.4,30.02,West,273,13.0,14.0,51,0.00,,,0.00,LWC V2.10 B1813,2013-04-14 19:53:00,
2013-04-14 15:58:00,45.4,27.9,30.02,North,354,9.0,11.0,50,0.00,,,0.00,LWC V2.10 B1813,2013-04-14 19:58:00,
2013-04-14 16:03:00,45.5,28.4,30.02,NNW,329,8.0,9.0,51,0.00,,,0.00,LWC V2.10 B1813,2013-04-14 20:03:00,
2013-04-14 16:08:00,45.8,28.7,30.03,NW,310,7.0,10.0,51,0.00,,,0.00,LWC V2.10 B1813,2013-04-14 20:08:00,
2013-04-14 16:13:00,45.5,28.0,30.03,West,279,6.0,13.0,50,0.00,,,0.00,LWC V2.10 B1813,2013-04-14 20:13:00,
2013-04-14 16:18:00,45.1,28.1,30.03,West,280,11.0,14.0,51,0.00,,,0.00,LWC V2.10 B1813,2013-04-14 20:18:00,
2013-04-14 16:23:00,45.0,28.4,30.03,NW,311,2.0,6.0,52,0.00,,,0.00,LWC V2.10 B1813,2013-04-14 20:23:00,
2013-04-14 16:28:00,44.9,28.4,30.03,NNW,344,2.0,12.0,52,0.00,,,0.00,LWC V2.10 B1813,2013-04-14 20:28:00,
2013-04-14 16:33:00,44.9,28.4,30.03,NNE,16,3.0,9.0,52,0.00,,,0.00,LWC V2.10 B1813,2013-04-14 20:33:00,
2013-04-14 16:38:00,45.1,28.5,30.03,NW,322,2.0,6.0,52,0.00,,,0.00,LWC V2.10 B1813,2013-04-14 20:38:00,
2013-04-14 16:43:00,45.3,28.7,30.03,NW,305,1.0,5.0,52,0.00,,,0.00,LWC V2.10 B1813,2013-04-14 20:43:00,
2013-04-14 16:48:00,45.8,28.2,30.03,NNW,347,10.0,15.0,50,0.00,,,0.00,LWC V2.10 B1813,2013-04-14 20:48:00,
2013-04-14 16:53:00,45.9,28.3,30.03,NNW,327,4.0,9.0,50,0.00,,,0.00,LWC V2.10 B1813,2013-04-14 20:53:00,
2013-04-14 16:58:00,45.7,28.6,30.04,NW,314,9.0,16.0,51,0.00,,,0.00,LWC V2.10 B1813,2013-04-14 20:58:00,
2013-04-14 17:03:00,45.7,29.1,30.04,NNW,347,4.0,7.0,52,0.00,,,0.00,LWC V2.10 B1813,2013-04-14 21:03:00,
2013-04-14 17:13:00,45.5,28.4,30.05,North,0,5.0,10.0,51,0.00,,,0.00,LWC V2.10 B1813,2013-04-14 21:13:00,
2013-04-14 17:18:00,45.9,29.3,30.05,NNW,339,1.0,9.0,52,0.00,,,0.00,LWC V2.10 B1813,2013-04-14 21:18:00,
2013-04-14 17:23:00,45.8,28.7,30.06,WNW,294,4.0,11.0,51,0.00,,,0.00,LWC V2.10 B1813,2013-04-14 21:23:00,
2013-04-14 17:28:00,45.6,28.5,30.06,WNW,290,11.0,15.0,51,0.00,,,0.00,LWC V2.10 B1813,2013-04-14 21:28:00,
2013-04-14 17:33:00,45.5,28.9,30.06,WNW,303,4.0,7.0,52,0.00,,,0.00,LWC V2.10 B1813,2013-04-14 21:33:00,
2013-04-14 17:38:00,45.6,29.0,30.06,North,352,8.0,8.0,52,0.00,,,0.00,LWC V2.10 B1813,2013-04-14 21:38:00,
2013-04-14 17:43:00,45.6,28.5,30.07,NNW,329,4.0,12.0,51,0.00,,,0.00,LWC V2.10 B1813,2013-04-14 21:43:00,
2013-04-14 17:48:00,45.7,29.1,30.07,North,1,4.0,5.0,52,0.00,,,0.00,LWC V2.10 B1813,2013-04-14 21:48:00,
2013-04-14 17:53:00,46.2,29.1,30.07,ENE,65,7.0,7.0,51,0.00,,,0.00,LWC V2.10 B1813,2013-04-14 21:53:00,
2013-04-14 17:58:00,46.6,29.5,30.07,North,350,0.0,5.0,51,0.00,,,0.00,LWC V2.10 B1813,2013-04-14 21:58:00,
2013-04-14 18:03:00,46.4,28.3,30.07,NNW,339,8.0,14.0,49,0.00,,,0.00,LWC V2.10 B1813,2013-04-14 22:03:00,
2013-04-14 18:08:00,46.1,28.0,30.07,NW,311,4.0,8.0,49,0.00,,,0.00,LWC V2.10 B1813,2013-04-14 22:08:00,
2013-04-14 18:13:00,46.5,28.9,30.07,North,354,5.0,7.0,50,0.00,,,0.00,LWC V2.10 B1813,2013-04-14 22:13:00,
2013-04-14 18:18:00,46.7,29.1,30.07,NW,305,1.0,2.0,50,0.00,,,0.00,LWC V2.10 B1813,2013-04-14 22:18:00,
2013-04-14 18:23:00,46.8,28.2,30.07,NW,308,6.0,12.0,48,0.00,,,0.00,LWC V2.10 B1813,2013-04-14 22:23:00,
2013-04-14 18:28:00,46.4,28.3,30.08,NNE,13,1.0,7.0,49,0.00,,,0.00,LWC V2.10 B1813,2013-04-14 22:28:00,
2013-04-14 18:33:00,46.2,28.1,30.07,North,0,6.0,8.0,49,0.00,,,0.00,LWC V2.10 B1813,2013-04-14 22:33:00,
2013-04-14 18:38:00,46.0,27.9,30.08,NNW,343,6.0,7.0,49,0.00,,,0.00,LWC V2.10 B1813,2013-04-14 22:38:00,
2013-04-14 18:43:00,45.8,27.7,30.07,NW,313,3.0,10.0,49,0.00,,,0.00,LWC V2.10 B1813,2013-04-14 22:43:00,
2013-04-14 18:48:00,45.5,28.0,30.08,WNW,289,5.0,13.0,50,0.00,,,0.00,LWC V2.10 B1813,2013-04-14 22:48:00,
2013-04-14 18:53:00,45.2,27.7,30.07,NW,325,3.0,9.0,50,0.00,,,0.00,LWC V2.10 B1813,2013-04-14 22:53:00,
2013-04-14 18:58:00,44.9,28.8,30.08,NW,311,4.0,4.0,53,0.00,,,0.00,LWC V2.10 B1813,2013-04-14 22:58:00,
2013-04-14 19:03:00,44.7,28.2,30.09,East,96,6.0,9.0,52,0.00,,,0.00,LWC V2.10 B1813,2013-04-14 23:03:00,
2013-04-14 19:08:00,44.4,28.4,30.09,NNW,330,2.0,4.0,53,0.00,,,0.00,LWC V2.10 B1813,2013-04-14 23:08:00,
2013-04-14 19:13:00,44.0,28.4,30.09,NW,311,6.0,6.0,54,0.00,,,0.00,LWC V2.10 B1813,2013-04-14 23:13:00,
2013-04-14 19:18:00,43.7,28.6,30.10,NNW,336,3.0,5.0,55,0.00,,,0.00,LWC V2.10 B1813,2013-04-14 23:18:00,
2013-04-14 19:23:00,43.4,28.3,30.10,NNW,328,5.0,7.0,55,0.00,,,0.00,LWC V2.10 B1813,2013-04-14 23:23:00,
2013-04-14 19:28:00,43.3,28.7,30.10,NW,305,2.0,6.0,56,0.00,,,0.00,LWC V2.10 B1813,2013-04-14 23:28:00,
2013-04-14 19:33:00,43.1,28.5,30.10,NNW,341,2.0,5.0,56,0.00,,,0.00,LWC V2.10 B1813,2013-04-14 23:33:00,
2013-04-14 19:38:00,43.0,28.4,30.11,NW,304,1.0,2.0,56,0.00,,,0.00,LWC V2.10 B1813,2013-04-14 23:38:00,
2013-04-14 19:43:00,42.7,28.1,30.11,NW,313,3.0,6.0,56,0.00,,,0.00,LWC V2.10 B1813,2013-04-14 23:43:00,
2013-04-14 19:48:00,42.7,28.5,30.11,NW,312,5.0,5.0,57,0.00,,,0.00,LWC V2.10 B1813,2013-04-14 23:48:00,
2013-04-14 19:53:00,42.5,28.8,30.11,NW,312,3.0,4.0,58,0.00,,,0.00,LWC V2.10 B1813,2013-04-14 23:53:00,
2013-04-14 19:58:00,42.4,28.7,30.11,WNW,298,2.0,8.0,58,0.00,,,0.00,LWC V2.10 B1813,2013-04-14 23:58:00,
2013-04-14 20:03:00,42.4,28.3,30.11,WNW,303,2.0,3.0,57,0.00,,,0.00,LWC V2.10 B1813,2013-04-15 00:03:00,
2013-04-14 20:08:00,42.3,28.6,30.12,WNW,283,3.0,3.0,58,0.00,,,0.00,LWC V2.10 B1813,2013-04-15 00:08:00,
2013-04-14 20:13:00,42.1,28.4,30.12,WNW,298,1.0,7.0,58,0.00,,,0.00,LWC V2.10 B1813,2013-04-15 00:13:00,
2013-04-14 20:23:00,41.9,28.6,30.13,WNW,284,3.0,4.0,59,0.00,,,0.00,LWC V2.10 B1813,2013-04-15 00:23:00,
2013-04-14 20:28:00,41.6,28.3,30.13,WNW,282,1.0,4.0,59,0.00,,,0.00,LWC V2.10 B1813,2013-04-15 00:28:00,
2013-04-14 20:33:00,41.0,29.0,30.13,WNW,289,1.0,2.0,62,0.00,,,0.00,LWC V2.10 B1813,2013-04-15 00:33:00,
2013-04-14 20:38:00,40.2,28.6,30.14,West,272,2.0,2.0,63,0.00,,,0.00,LWC V2.10 B1813,2013-04-15 00:38:00,
2013-04-14 20:43:00,39.7,28.9,30.15,West,279,1.0,3.0,65,0.00,,,0.00,LWC V2.10 B1813,2013-04-15 00:43:00,
2013-04-14 20:48:00,39.2,28.8,30.15,WNW,289,2.0,3.0,66,0.00,,,0.00,LWC V2.10 B1813,2013-04-15 00:48:00,
2013-04-14 20:53:00,38.8,29.5,30.16,WNW,303,2.0,2.0,69,0.00,,,0.00,LWC V2.10 B1813,2013-04-15 00:53:00,
2013-04-14 20:58:00,38.2,28.9,30.16,WNW,291,2.0,3.0,69,0.00,,,0.00,LWC V2.10 B1813,2013-04-15 00:58:00,
2013-04-14 21:03:00,38.0,29.4,30.16,WNW,286,2.0,3.0,71,0.00,,,0.00,LWC V2.10 B1813,2013-04-15 01:03:00,
2013-04-14 21:08:00,37.8,29.6,30.16,WNW,301,2.0,2.0,72,0.00,,,0.00,LWC V2.10 B1813,2013-04-15 01:08:00,
2013-04-14 21:13:00,37.5,28.6,30.17,WNW,296,1.0,2.0,70,0.00,,,0.00,LWC V2.10 B1813,2013-04-15 01:13:00,
2013-04-14 21:18:00,37.4,29.2,30.16,WNW,296,1.0,2.0,72,0.00,,,0.00,LWC V2.10 B1813,2013-04-15 01:18:00,
2013-04-14 21:23:00,36.9,29.4,30.17,WNW,290,1.0,2.0,74,0.00,,,0.00,LWC V2.10 B1813,2013-04-15 01:23:00,
2013-04-14 21:33:00,35.9,29.4,30.17,NW,307,0.0,1.0,77,0.00,,,0.00,LWC V2.10 B1813,2013-04-15 01:33:00,
2013-04-14 21:38:00,35.4,29.5,30.18,NW,305,0.0,0.0,79,0.00,,,0.00,LWC V2.10 B1813,2013-04-15 01:38:00,
2013-04-14 21:43:00,35.0,29.5,30.18,NW,305,0.0,0.0,80,0.00,,,0.00,LWC V2.10 B1813,2013-04-15 01:43:00,
2013-04-14 21:48:00,34.7,29.5,30.18,NW,305,0.0,0.0,81,0.00,,,0.00,LWC V2.10 B1813,2013-04-15 01:48:00,
2013-04-14 21:53:00,34.9,30.0,30.18,WNW,289,1.0,1.0,82,0.00,,,0.00,LWC V2.10 B1813,2013-04-15 01:53:00,
2013-04-14 21:58:00,35.0,30.1,30.18,WNW,303,1.0,2.0,82,0.00,,,0.00,LWC V2.10 B1813,2013-04-15 01:58:00,
2013-04-14 22:03:00,35.0,30.1,30.18,NW,309,1.0,2.0,82,0.00,,,0.00,LWC V2.10 B1813,2013-04-15 02:03:00,
2013-04-14 22:08:00,35.1,30.2,30.18,WNW,283,0.0,1.0,82,0.00,,,0.00,LWC V2.10 B1813,2013-04-15 02:08:00,
2013-04-14 22:13:00,35.2,30.6,30.18,West,268,1.0,1.0,83,0.00,,,0.00,LWC V2.10 B1813,2013-04-15 02:13:00,
2013-04-14 22:18:00,35.2,30.6,30.18,WNW,284,1.0,1.0,83,0.00,,,0.00,LWC V2.10 B1813,2013-04-15 02:18:00,
2013-04-14 22:23:00,35.2,30.3,30.18,West,269,0.0,0.0,82,0.00,,,0.00,LWC V2.10 B1813,2013-04-15 02:23:00,
2013-04-14 22:28:00,35.2,30.6,30.18,West,270,0.0,0.0,83,0.00,,,0.00,LWC V2.10 B1813,2013-04-15 02:28:00,
2013-04-14 22:33:00,35.1,30.5,30.18,WNW,283,1.0,2.0,83,0.00,,,0.00,LWC V2.10 B1813,2013-04-15 02:33:00,
2013-04-14 22:38:00,35.0,30.1,30.18,WNW,296,2.0,2.0,82,0.00,,,0.00,LWC V2.10 B1813,2013-04-15 02:38:00,
2013-04-14 22:43:00,34.9,30.3,30.18,WNW,286,2.0,2.0,83,0.00,,,0.00,LWC V2.10 B1813,2013-04-15 02:43:00,
2013-04-14 22:48:00,34.8,30.2,30.18,WNW,302,2.0,2.0,83,0.00,,,0.00,LWC V2.10 B1813,2013-04-15 02:48:00,
2013-04-14 22:53:00,34.7,30.1,30.18,WNW,291,2.0,3.0,83,0.00,,,0.00,LWC V2.10 B1813,2013-04-15 02:53:00,
2013-04-14 22:58:00,34.6,30.0,30.18,WNW,291,2.0,3.0,83,0.00,,,0.00,LWC V2.10 B1813,2013-04-15 02:58:00,
2013-04-14 23:03:00,34.4,29.8,30.18,WNW,300,0.0,3.0,83,0.00,,,0.00,LWC V2.10 B1813,2013-04-15 03:03:00,
2013-04-14 23:08:00,34.2,29.9,30.18,WNW,300,0.0,0.0,84,0.00,,,0.00,LWC V2.10 B1813,2013-04-15 03:08:00,
2013-04-14 23:13:00,33.7,29.7,30.19,WNW,300,0.0,0.0,85,0.00,,,0.00,LWC V2.10 B1813,2013-04-15 03:13:00,
2013-04-14 23:18:00,33.2,29.2,30.19,WNW,300,0.0,0.0,85,0.00,,,0.00,LWC V2.10 B1813,2013-04-15 03:18:00,
2013-04-14 23:23:00,32.9,29.5,30.19,WNW,298,0.0,1.0,87,0.00,,,0.00,LWC V2.10 B1813,2013-04-15 03:23:00,
2013-04-14 23:28:00,32.6,29.2,30.19,WNW,298,1.0,1.0,87,0.00,,,0.00,LWC V2.10 B1813,2013-04-15 03:28:00,
2013-04-14 23:33:00,32.4,29.2,30.19,WNW,291,1.0,1.0,88,0.00,,,0.00,LWC V2.10 B1813,2013-04-15 03:33:00,
2013-04-14 23:38:00,32.1,29.0,30.20,WNW,293,0.0,0.0,88,0.00,,,0.00,LWC V2.10 B1813,2013-04-15 03:38:00,
2013-04-14 23:43:00,31.6,28.7,30.20,WNW,293,0.0,0.0,89,0.00,,,0.00,LWC V2.10 B1813,2013-04-15 03:43:00,
2013-04-14 23:48:00,31.2,28.6,30.20,ESE,108,2.0,3.0,90,0.00,,,0.00,LWC V2.10 B1813,2013-04-15 03:48:00,
2013-04-14 23:53:00,31.0,28.4,30.21,East,88,0.0,0.0,90,0.00,,,0.00,LWC V2.10 B1813,2013-04-15 03:53:00,
2013-04-14 23:58:00,31.0,28.4,30.21,SW,234,0.0,0.0,90,0.00,,,0.00,LWC V2.10 B1813,2013-04-15 03:58:00,